Content
SEND FEEDBACK

Daily
Averages
Monthly
Summary
Turkey

KILIS, TURKEY


Home > Middle East > Turkey
Elevation: 2093 feet     Latitude: 36 06N     Longitude: 037 24E

WEATHER
 
SELECT A DAY
Number of Records: 207,210;   Date Range: 7/1/96 - 8/28/14
 
SHARE

PRINT THIS DATA

[ ← Previous Day ]
WEATHER ALMANAC - MARCH 5, 2013
[ Next Day → ]
[ °C ]   °F
Weather ElementAverageHighLow
Temperature45.6 °F54 °F (2:00 pm)35.6 °F (10:20 pm)
Dewpoint24.6 °F41 °F (12:50 am)6.8 °F (11:50 pm)
Humidity46.4 %81 % (12:50 am)15 % (8:00 pm)
Barometer29.92 in30.06 in (10:50 pm)29.81 in (2:00 am)
Wind Speed13.5 mph25.3 mph (7:50 pm)
Wind Gust38 mph (7:50 pm)
Weather ElementAverage
Visibility6.2 mi
Wind DirectionWSW (256.2 °)

Weather ElementTotal
Precipitation---
Heating Degree Days20.2 (Base 65)
Averaged from 52 records on March 5, 2013
WEATHER CONDITIONS BREAKOUT
WIND DIRECTION BREAKOUT
WEATHER BY HOUR - MARCH 5, 2013
[ °C ]   °F
Local TimeTemperatureDewpointHumidityBarometerVisibilityWind DirectionWind SpeedGust SpeedPrecipitationEventsConditions
12:50 AM46.4 °F41.0 °F81 %29.83 in6.2 miWest (260°)9.2 mphMostly Cloudy
1:04 AM46.4 °F41.0 °F81 %29.83 in6.2 miWNW (290°)12.7 mphRainLight Rain Showers
1:20 AM46.4 °F41.0 °F81 %29.83 in6.2 miWest (280°)9.2 mphRainLight Rain Showers
1:50 AM46.4 °F39.2 °F76 %29.83 in6.2 miWNW (300°)8.1 mphRainLight Rain Showers
2:00 AM47.0 °F40.0 °F67 %29.81 in6.0 miWNW (300°)8.1 mphRainLight Rain Showers
2:20 AM46.4 °F39.2 °F76 %29.83 in6.2 miVariable2.3 mphRainLight Rain Showers
2:50 AM46.4 °F39.2 °F76 %29.83 in6.2 miVariable1.2 mphMostly Cloudy
3:20 AM46.4 °F39.2 °F76 %29.83 in6.2 miWest (260°)3.5 mphMostly Cloudy
3:50 AM46.4 °F39.2 °F76 %29.83 in6.2 miVariable1.2 mphMostly Cloudy
4:20 AM44.6 °F39.2 °F81 %29.83 in6.2 miWSW (240°)1.2 mphMostly Cloudy
4:50 AM44.6 °F37.4 °F76 %29.83 in6.2 miWNW (300°)4.6 mphMostly Cloudy
5:20 AM42.8 °F37.4 °F81 %29.83 in6.2 miWSW (240°)1.2 mphMostly Cloudy
5:50 AM42.8 °F35.6 °F76 %29.83 in6.2 miCalmMostly Cloudy
6:20 AM42.8 °F35.6 °F76 %29.86 in6.2 miVariable1.2 mphMostly Cloudy
6:50 AM42.8 °F35.6 °F76 %29.86 in6.2 miCalmScattered Clouds
7:20 AM44.6 °F32.0 °F61 %29.89 in6.2 miVariable2.3 mphScattered Clouds
7:50 AM48.2 °F32.0 °F54 %29.89 in6.2 miNNW (340°)10.4 mphPartly Cloudy
8:00 AM47.0 °F31.0 °F42 %29.91 in6.0 miNNW (340°)10.4 mphPartly Cloudy
8:20 AM48.2 °F28.4 °F46 %29.89 in6.2 miNNW (330°)15.0 mphPartly Cloudy
8:50 AM50.0 °F28.4 °F43 %29.92 in6.2 miNNW (330°)13.8 mphPartly Cloudy
9:20 AM50.0 °F28.4 °F43 %29.92 in6.2 miNNW (330°)11.5 mphPartly Cloudy
9:50 AM50.0 °F26.6 °F40 %29.92 in6.2 miNNW (330°)11.5 mphPartly Cloudy
10:20 AM51.8 °F24.8 °F35 %29.92 in6.2 miNNW (340°)11.5 mphPartly Cloudy
10:50 AM51.8 °F24.8 °F35 %29.92 in6.2 miNNW (340°)10.4 mphPartly Cloudy
11:20 AM53.6 °F26.6 °F35 %29.92 in6.2 miNNW (330°)9.2 mphPartly Cloudy
11:50 AM53.6 °F24.8 °F33 %29.92 in6.2 miWNW (290°)16.1 mphPartly Cloudy
12:20 PM53.6 °F21.2 °F28 %29.89 in6.2 miNW (320°)18.4 mphPartly Cloudy
12:50 PM53.6 °F21.2 °F28 %29.89 in6.2 miNW (320°)18.4 mphPartly Cloudy
1:20 PM53.6 °F21.2 °F28 %29.89 in6.2 miNW (320°)19.6 mphPartly Cloudy
1:50 PM53.6 °F23.0 °F30 %29.89 in6.2 miNNW (330°)18.4 mphScattered Clouds
2:00 PM54.0 °F23.0 °F18 %29.88 in6.0 miNNW (330°)18.4 mphPartly Cloudy
2:20 PM53.6 °F23.0 °F30 %29.89 in6.2 miNW (310°)16.1 mphScattered Clouds
2:50 PM51.8 °F23.0 °F33 %29.89 in6.2 miNW (320°)20.7 mphScattered Clouds
3:20 PM50.0 °F23.0 °F35 %29.89 in6.2 miNorth (350°)16.1 mph28.8 mphScattered Clouds
3:50 PM48.2 °F23.0 °F37 %29.92 in6.2 miNorth (360°)18.4 mphScattered Clouds
4:20 PM48.2 °F19.4 °F32 %29.92 in6.2 miNorth (350°)20.7 mph35.7 mphScattered Clouds
4:50 PM46.4 °F17.6 °F32 %29.92 in6.2 miNorth (10°)21.9 mphScattered Clouds
5:20 PM42.8 °F15.8 °F34 %29.95 in6.2 miNorth (10°)19.6 mphScattered Clouds
5:50 PM42.8 °F12.2 °F29 %29.95 in6.2 miNorth (360°)19.6 mph34.5 mphPartly Cloudy
6:20 PM42.8 °F8.6 °F25 %29.98 inNNW (330°)23.0 mph34.5 mphClear
6:50 PM39.2 °F12.2 °F33 %30.01 inNorth (350°)17.3 mphClear
7:20 PM39.2 °F8.6 °F28 %30.01 inNorth (10°)16.1 mphClear
7:50 PM39.2 °F10.4 °F31 %30.01 inNorth (350°)25.3 mph38.0 mphClear
8:00 PM38.0 °F7.0 °F15 %30.05 in6.0 miNorth (350°)25.3 mph
8:20 PM37.4 °F10.4 °F33 %30.01 inNorth (350°)24.2 mph36.8 mphClear
8:50 PM37.4 °F12.2 °F36 %30.04 inNorth (350°)17.3 mphClear
9:20 PM37.4 °F10.4 °F33 %30.04 inNorth (350°)21.9 mphClear
9:50 PM37.4 °F10.4 °F33 %30.04 inNorth (360°)19.6 mphClear
10:20 PM35.6 °F10.4 °F35 %30.04 inNorth (360°)21.9 mph33.4 mphClear
10:50 PM35.6 °F8.6 °F33 %30.06 inNorth (10°)17.3 mph28.8 mphClear
11:20 PM35.6 °F8.6 °F33 %30.06 inNorth (350°)19.6 mph32.2 mphClear
11:50 PM35.6 °F6.8 °F30 %30.06 inNNW (340°)20.7 mphClear
Hourly data recorded from LTAJ, located miles away from Kilis, Turkey







STORIES FROM OUR PARTNERS